Stations météo

Publicité
Charleville, France (7075): Température de l'air & dewpoint: 28.05.2020 02:00:00 - 03.06.2020 02:00:00 (CEST)Charleville, France (7075): Température de l'air 5cm: 28.05.2020 02:00:00 - 03.06.2020 02:00:00 (CEST)Charleville, France (7075): Température de l'air -20cm & Température de l'air -100cm: 28.05.2020 02:00:00 - 03.06.2020 02:00:00 (CEST)Charleville, France (7075): Vitesse du vent & gusts: 28.05.2020 02:00:00 - 03.06.2020 02:00:00 (CEST)Charleville, France (7075): Direction du vent: 28.05.2020 02:00:00 - 03.06.2020 02:00:00 (CEST)Charleville, France (7075): reduced air pressure: 28.05.2020 02:00:00 - 03.06.2020 02:00:00 (CEST)Charleville, France (7075): visibility: 28.05.2020 02:00:00 - 03.06.2020 02:00:00 (CEST)Charleville, France (7075): Ensoleillement: 28.05.2020 02:00:00 - 03.06.2020 02:00:00 (CEST)Charleville, France (7075): Quantités de précipitations: 28.05.2020 02:00:00 - 03.06.2020 02:00:00 (CEST)
Date & Time tt [°C] td [°C] tt 5cm [°C] tt -20cm [°C] tt -100cm [°C] ff [km/h] ff [knt] fx [km/h] fx [knt] dd ppp [hPa] vv [km] sd [min] rr [mm]
03.06.2020 02:00:00 12,1 9,1 8,9 18,9 13,9 0 0 6 4 N 1011,6 20 0 0,0
03.06.2020 01:00:00 13,8 9,4 10,1 18,9 13,9 2 1 7 4 S 1012,2 20 0 0,0
03.06.2020 00:00:00 16,8 9,9 12,8 19,0 13,9 3 1 9 5 N 1012,6 20 0 0,0
02.06.2020 23:00:00 19,1 10,1 15,3 19,0 13,9 4 2 22 12 WNW 1013,0 17 0 0,0
02.06.2020 22:00:00 21,7 10,2 20,6 19,0 13,9 16 9 36 20 NNW 1012,6 20 13 0,0
02.06.2020 21:00:00 24,4 11,0 22,2 18,8 13,9 5 3 16 9 NNW 1011,8 20 35 0,0
02.06.2020 20:00:00 27,1 11,6 27,0 18,7 13,9 5 3 12 6 W 1011,9 20 56 0,0
02.06.2020 19:00:00 28,0 9,3 27,9 18,4 13,8 9 5 14 8 W 1012,2 20 57 0,0
02.06.2020 18:00:00 28,9 9,1 29,3 18,2 13,8 9 5 18 10 WSW 1012,8 20 60 0,0
02.06.2020 17:00:00 28,7 8,9 31,6 17,9 13,9 7 4 21 11 NW 1013,5 20 60 0,0
02.06.2020 16:00:00 28,6 8,3 33,4 17,6 13,8 6 3 17 9 S 1014,2 20 60 0,0
02.06.2020 15:00:00 27,6 10,3 33,9 17,3 13,8 8 5 21 11 SSE 1014,9 20 60 0,0
02.06.2020 14:00:00 27,4 10,1 33,4 17,1 13,8 11 6 22 12 SSE 1015,5 20 60 0,0
02.06.2020 13:00:00 26,5 9,8 28,4 16,9 13,8 7 4 19 10 SE 1016,2 18 56 0,0
02.06.2020 12:00:00 26,0 9,3 31,7 16,7 13,7 4 2 14 7 W 1016,8 15 55 0,0
02.06.2020 11:00:00 24,3 11,3 27,2 16,9 13,7 5 3 11 6 SE 1017,3 4,5 60 0,0
02.06.2020 10:00:00 22,1 12,4 24,9 17,0 13,9 0 0 6 4 N 1018,1 20 60 0,0
02.06.2020 09:00:00 18,8 11,6 17,5 17,0 13,7 2 1 6 4 SSW 1018,5 20 60 0,0
02.06.2020 08:00:00 13,4 10,6 12,5 17,2 13,8 5 3 7 4 ENE 1019,0 20 60 0,0
02.06.2020 07:00:00 9,6 8,5 5,0 17,4 13,8 0 0 4 2 N 1019,2 19 54 0,0
02.06.2020 06:00:00 6,7 6,4 3,3 17,5 13,8 0 0 4 2 N 1019,5 20 0 0,0
02.06.2020 05:00:00 6,6 6,2 3,4 17,7 13,8 0 0 3 2 N 1019,5 20 0 0,0
02.06.2020 04:00:00 7,3 6,2 3,9 17,8 13,8 2 1 4 2 WSW 1019,5 20 0 0,0
02.06.2020 03:00:00 8,2 7,6 4,6 18,0 13,8 0 0 4 2 N 1019,4 20 0 0,0
02.06.2020 02:00:00 9,4 8,5 5,8 18,1 13,8 0 0 3 2 N 1019,7 20 0 0,0
02.06.2020 01:00:00 10,8 9,6 7,0 18,1 13,8 0 0 5 3 N 1019,6 20 0 0,0
02.06.2020 00:00:00 11,9 9,1 8,2 18,2 13,8 3 1 10 5 W 1019,3 17 0 0,0
01.06.2020 23:00:00 14,1 9,7 9,2 18,2 13,8 2 1 5 3 WNW 1019,1 20 0 0,0
01.06.2020 22:00:00 18,1 10,0 11,1 18,1 13,8 2 1 8 4 E 1018,3 20 1 0,0
01.06.2020 21:00:00 21,3 10,5 17,9 18,0 13,8 6 4 16 9 E 1017,6 20 28 0,0
01.06.2020 20:00:00 25,5 10,5 25,4 17,9 13,8 9 5 23 12 ENE 1017,2 20 60 0,0
01.06.2020 19:00:00 26,4 9,7 26,9 17,7 13,8 10 5 26 14 ENE 1017,1 20 60 0,0
01.06.2020 18:00:00 26,9 11,0 25,2 17,4 13,7 10 6 32 18 ESE 1017,4 20 50 0,0
01.06.2020 17:00:00 26,8 11,3 29,7 17,1 13,8 15 8 37 20 SE 1017,7 20 60 0,0
01.06.2020 16:00:00 26,5 11,8 30,6 16,8 13,7 19 10 35 19 ESE 1018,0 20 60 0,0
01.06.2020 15:00:00 25,7 10,7 31,5 16,6 13,7 18 10 35 19 E 1018,3 20 60 0,0
01.06.2020 14:00:00 25,2 11,7 31,7 16,4 13,7 18 10 34 18 E 1018,7 20 60 0,0
01.06.2020 13:00:00 24,1 11,4 29,5 16,2 13,7 16 9 30 16 ESE 1019,2 18 60 0,0
01.06.2020 12:00:00 22,7 10,2 28,5 16,2 13,8 19 10 31 17 ENE 1019,6 20 60 0,0
01.06.2020 11:00:00 21,5 9,1 25,2 16,3 13,7 14 8 29 16 E 1019,9 20 60 0,0
01.06.2020 10:00:00 19,6 8,9 21,9 16,3 13,7 12 7 24 13 ENE 1020,3 20 60 0,0
01.06.2020 09:00:00 17,9 8,7 19,3 16,4 13,8 13 7 22 12 E 1020,5 20 60 0,0
01.06.2020 08:00:00 14,6 9,4 11,5 16,6 13,8 2 1 6 3 W 1020,7 20 60 0,0
01.06.2020 07:00:00 9,5 7,3 2,6 16,7 13,7 2 1 7 4 NNW 1020,9 20 50 0,0
01.06.2020 06:00:00 5,0 3,8 2,1 16,9 13,7 2 1 5 3 WNW 1021,2 20 0 0,0
01.06.2020 05:00:00 5,8 4,1 2,9 17,0 13,7 2 1 6 4 W 1021,2 20 0 0,0
01.06.2020 04:00:00 6,8 4,9 4,4 17,2 13,7 4 2 10 6 W 1021,4 20 0 0,0
01.06.2020 03:00:00 7,8 5,6 5,2 17,3 13,7 5 3 10 5 W 1021,3 20 0 0,0
01.06.2020 02:00:00 8,8 6,6 4,4 17,4 13,7 6 3 11 6 WNW 1021,2 20 0 0,0
01.06.2020 01:00:00 9,3 6,2 4,6 17,5 13,7 2 1 4 2 W 1021,1 20 0 0,0
01.06.2020 00:00:00 10,7 6,6 6,2 17,6 13,7 3 1 9 5 W 1020,8 20 0 0,0
31.05.2020 23:00:00 13,4 6,0 6,7 17,6 13,7 2 1 8 5 ENE 1020,3 20 0 0,0
31.05.2020 22:00:00 15,7 6,4 9,1 17,5 13,7 3 2 16 9 NE 1019,8 15 4 0,0
31.05.2020 21:00:00 18,4 6,6 17,0 17,4 13,7 11 6 28 15 E 1019,1 20 60 0,0
31.05.2020 20:00:00 20,8 6,0 19,9 17,4 13,7 11 6 21 12 SE 1018,5 20 47 0,0
31.05.2020 19:00:00 22,4 5,3 23,1 17,2 13,7 19 10 33 18 ENE 1018,2 20 60 0,0
31.05.2020 18:00:00 22,9 6,6 23,5 17,1 13,7 14 8 32 17 ENE 1018,2 20 56 0,0
31.05.2020 17:00:00 23,0 7,5 22,4 16,9 13,7 16 8 33 18 E 1018,5 20 51 0,0
31.05.2020 16:00:00 21,2 7,1 21,7 16,6 13,6 14 7 36 19 NE 1019,1 20 36 0,0
31.05.2020 15:00:00 22,0 6,6 25,3 16,4 13,7 13 7 48 26 E 1019,3 20 54 0,0
31.05.2020 14:00:00 21,7 7,5 25,0 16,3 13,7 17 9 40 22 E 1019,5 20 58 0,0
31.05.2020 13:00:00 20,4 6,7 20,8 16,2 13,6 9 5 32 17 NE 1020,1 20 34 0,0
31.05.2020 12:00:00 20,2 6,5 19,7 16,2 13,6 15 8 31 17 ENE 1020,5 20 22 0,0
31.05.2020 11:00:00 19,1 6,6 23,1 16,2 13,6 13 7 37 20 ENE 1020,9 20 57 0,0
31.05.2020 10:00:00 18,2 5,7 21,3 16,3 13,6 11 6 17 9 E 1021,2 20 60 0,0
31.05.2020 09:00:00 17,0 6,5 18,1 16,4 13,6 3 1 6 4 SSE 1021,3 20 60 0,0
31.05.2020 08:00:00 13,2 8,9 10,0 16,6 13,6 0 0 4 2 N 1021,7 20 60 0,0
31.05.2020 07:00:00 7,5 6,8 1,2 16,8 13,6 0 0 6 4 N 1022,0 20 51 0,0
31.05.2020 06:00:00 4,2 3,9 0,4 17,0 13,6 2 1 4 2 WNW 1022,2 16 0 0,0
31.05.2020 05:00:00 5,0 4,6 0,8 17,1 13,6 3 2 5 3 WNW 1021,7 5 0 0,0
31.05.2020 04:00:00 5,6 5,2 1,5 17,3 13,6 0 0 3 1 N 1021,7 20 0 0,0
31.05.2020 03:00:00 6,4 5,5 2,2 17,4 13,6 2 1 3 2 W 1021,7 20 0 0,0
31.05.2020 02:00:00 7,2 6,1 3,0 17,6 13,6 0 0 4 2 N 1021,7 20 0 0,0
31.05.2020 01:00:00 8,4 6,9 4,3 17,7 13,6 2 1 5 3 WSW 1021,5 20 0 0,0
31.05.2020 00:00:00 10,0 7,1 5,6 17,7 13,6 0 0 4 2 N 1021,1 19 0 0,0
30.05.2020 23:00:00 13,0 7,7 7,1 17,7 13,6 0 0 7 4 N 1020,5 20 0 0,0
30.05.2020 22:00:00 15,7 7,2 9,6 17,7 13,6 2 1 11 6 ENE 1019,9 20 9 0,0
30.05.2020 21:00:00 19,3 7,7 18,0 17,6 13,6 6 3 23 13 E 1019,1 20 55 0,0
30.05.2020 20:00:00 21,4 6,5 20,2 17,5 13,6 16 9 28 15 ENE 1018,7 20 36 0,0
30.05.2020 19:00:00 22,6 6,8 22,7 17,3 13,6 10 6 29 16 ENE 1018,8 20 54 0,0
30.05.2020 18:00:00 23,0 6,7 23,3 17,1 13,6 13 7 31 17 ENE 1019,0 20 51 0,0
30.05.2020 17:00:00 23,6 5,9 26,2 16,9 13,6 15 8 33 18 E 1019,5 20 60 0,0
30.05.2020 16:00:00 23,6 7,6 25,7 16,6 13,6 9 5 34 18 ENE 1019,9 20 54 0,0
30.05.2020 15:00:00 22,5 7,1 25,2 16,4 13,5 13 7 35 19 ENE 1020,5 20 56 0,0
30.05.2020 14:00:00 22,4 5,8 28,2 16,2 13,6 13 7 32 17 SSE 1020,8 20 60 0,0
30.05.2020 13:00:00 22,0 5,8 27,5 16,1 13,5 13 7 39 21 ESE 1021,2 20 60 0,0
30.05.2020 12:00:00 21,4 5,3 27,0 16,1 13,5 16 8 35 19 SE 1021,7 20 60 0,0
30.05.2020 11:00:00 20,8 7,8 25,2 16,1 13,5 7 4 17 9 ESE 1022,0 20 60 0,0
30.05.2020 10:00:00 18,9 7,6 21,6 16,2 13,5 5 3 11 6 SE 1022,3 20 60 0,0
30.05.2020 09:00:00 16,8 8,5 18,5 16,3 13,6 3 1 6 3 ESE 1022,6 19 60 0,0
30.05.2020 08:00:00 11,8 8,5 9,5 16,5 13,6 0 0 4 2 N 1023,1 20 60 0,0
30.05.2020 07:00:00 7,2 6,5 0,9 16,7 13,5 0 0 3 2 N 1023,4 14 50 0,0
30.05.2020 06:00:00 4,3 4,2 0,0 16,8 13,5 0 0 3 2 N 1023,5 12 0 0,0
30.05.2020 05:00:00 3,3 2,7 0,7 17,0 13,5 2 1 8 4 NW 1023,6 7 0 0,0
30.05.2020 04:00:00 5,8 5,5 1,0 17,1 13,5 0 0 3 2 N 1023,4 20 0 0,0
30.05.2020 03:00:00 6,1 5,5 1,8 17,3 13,5 0 0 4 2 N 1023,5 20 0 0,0
30.05.2020 02:00:00 6,8 5,4 3,0 17,4 13,5 3 1 6 4 W 1023,5 20 0 0,0
30.05.2020 01:00:00 8,8 6,2 4,3 17,5 13,5 0 0 6 3 N 1023,3 20 0 0,0
30.05.2020 00:00:00 11,8 6,5 7,3 17,5 13,5 5 3 8 4 SSW 1023,0 17 0 0,0
29.05.2020 23:00:00 14,1 6,2 8,2 17,5 13,5 4 2 24 13 NE 1022,6 20 0 0,0
29.05.2020 22:00:00 15,2 6,7 11,1 17,5 13,5 8 4 16 9 E 1022,4 20 9 0,0
29.05.2020 21:00:00 19,5 5,9 17,9 17,4 13,5 12 6 21 12 NE 1021,6 20 60 0,0
29.05.2020 20:00:00 21,8 6,1 21,8 17,3 13,5 13 7 19 10 E 1021,5 20 60 0,0
29.05.2020 19:00:00 23,1 6,4 23,5 17,2 13,5 11 6 26 14 NE 1021,7 20 60 0,0
29.05.2020 18:00:00 23,5 6,3 24,5 16,9 13,5 10 5 29 16 NE 1022,2 20 60 0,0
29.05.2020 17:00:00 23,4 5,8 25,9 16,7 13,5 16 9 31 17 E 1022,7 20 60 0,0
29.05.2020 16:00:00 22,7 6,0 27,2 16,4 13,4 18 10 35 19 ENE 1023,5 20 60 0,0
29.05.2020 15:00:00 22,3 6,1 28,6 16,2 13,5 13 7 32 18 E 1024,2 20 60 0,0
29.05.2020 14:00:00 21,6 5,5 27,5 16,0 13,5 12 6 34 18 ENE 1025,0 20 60 0,0
29.05.2020 13:00:00 21,4 6,5 27,5 15,9 13,5 15 8 27 14 E 1025,7 20 60 0,0
29.05.2020 12:00:00 20,6 5,8 26,0 15,9 13,5 10 6 27 15 ESE 1026,3 20 60 0,0
29.05.2020 11:00:00 19,4 4,7 24,6 15,9 13,5 16 9 28 15 SE 1026,9 20 60 0,0
29.05.2020 10:00:00 18,8 6,9 20,5 16,0 13,4 5 3 17 9 E 1027,0 20 60 0,0
29.05.2020 09:00:00 16,2 6,0 17,4 16,1 13,5 13 7 20 11 ENE 1027,4 20 60 0,0
29.05.2020 08:00:00 12,4 7,1 10,5 16,3 13,4 3 1 6 4 W 1027,6 20 60 0,0
29.05.2020 07:00:00 7,2 4,8 0,5 16,4 13,4 3 2 8 4 WNW 1028,3 20 49 0,0
29.05.2020 06:00:00 4,0 2,8 -0,1 16,6 13,4 3 2 6 4 W 1028,5 20 0 0,0
29.05.2020 05:00:00 4,8 2,8 1,3 16,7 13,4 4 2 8 4 WNW 1028,2 20 0 0,0
29.05.2020 04:00:00 5,6 3,4 1,7 16,9 13,4 5 3 9 5 WNW 1028,4 20 0 0,0
29.05.2020 03:00:00 6,8 3,9 3,1 17,0 13,4 4 2 8 4 W 1028,7 20 0 0,0
29.05.2020 02:00:00 8,6 4,2 3,8 17,2 13,4 6 4 10 5 SW 1028,7 20 0 0,0
29.05.2020 01:00:00 8,4 4,2 5,1 17,2 13,4 2 1 9 5 SW 1028,9 20 0 0,0
29.05.2020 00:00:00 13,0 3,1 5,5 17,3 13,4 4 2 15 8 NE 1028,6 20 0 0,0
28.05.2020 23:00:00 14,3 3,7 11,7 17,4 13,4 10 5 17 9 NNE 1028,4 20 0 0,0
28.05.2020 22:00:00 15,3 3,7 12,4 17,4 13,4 9 5 19 11 NNE 1028,3 20 8 0,0
28.05.2020 21:00:00 18,0 4,5 16,4 17,3 13,4 11 6 39 21 NNE 1027,8 20 60 0,0
28.05.2020 20:00:00 20,1 4,9 19,6 17,2 13,4 20 11 37 20 NE 1027,6 20 60 0,0
28.05.2020 19:00:00 21,4 4,9 21,6 17,1 13,4 22 12 37 20 NE 1027,5 20 60 0,0
28.05.2020 18:00:00 22,5 6,3 23,3 17,0 13,4 19 10 38 21 NE 1027,7 20 60 0,0
28.05.2020 17:00:00 23,0 6,7 24,8 16,8 13,4 19 10 37 20 NNE 1027,9 20 60 0,0
28.05.2020 16:00:00 22,9 7,0 26,3 16,5 13,4 16 8 32 18 NNE 1028,4 20 60 0,0
28.05.2020 15:00:00 22,5 8,6 26,8 16,4 13,4 16 8 35 19 NE 1028,9 20 60 0,0
28.05.2020 14:00:00 21,8 9,7 26,3 16,2 13,4 14 8 34 19 NE 1029,5 20 60 0,0
28.05.2020 13:00:00 20,9 8,8 25,1 16,1 13,4 16 9 34 18 NNE 1030,1 20 60 0,0
28.05.2020 12:00:00 19,8 9,9 24,0 16,1 13,4 16 9 34 19 NNE 1030,7 20 60 0,0
28.05.2020 11:00:00 18,5 8,7 21,3 16,2 13,4 16 8 32 18 NE 1031,0 20 60 0,0
28.05.2020 10:00:00 17,3 8,7 19,1 16,2 13,4 17 9 29 15 NNE 1031,2 20 60 0,0
28.05.2020 09:00:00 16,2 9,8 16,8 16,3 13,4 11 6 23 12 NNE 1031,5 20 60 0,0
28.05.2020 08:00:00 14,4 9,8 13,5 16,5 13,4 11 6 23 13 NE 1031,6 20 60 0,0
28.05.2020 07:00:00 12,7 9,9 5,3 16,6 13,3 3 2 15 8 NNE 1031,9 20 48 0,0
28.05.2020 06:00:00 8,1 6,7 4,3 16,7 13,4 3 2 9 5 SW 1032,2 18 0 0,0
28.05.2020 05:00:00 8,4 6,5 5,0 16,8 13,3 2 1 7 4 NW 1032,0 20 0 0,0
28.05.2020 04:00:00 10,8 7,7 7,1 17,0 13,4 5 3 18 10 NNW 1031,9 20 0 0,0
28.05.2020 03:00:00 12,4 8,1 8,2 17,1 13,4 9 5 19 10 N 1031,8 20 0 0,0
28.05.2020 02:00:00 14,3 7,8 9,5 17,2 13,4 4 2 14 8 NNW 1032,0 20 0 0,0

tt = Température de l'air
td = dewpoint
tt 5cm = Température de l'air 5cm
tt -20cm = Température de l'air -20cm
tt -100cm = Température de l'air -100cm
ff = Vitesse du vent
fx = gusts
dd = Direction du vent
ppp = reduced air pressure
vv = visibility
sd = Ensoleillement
rr = Quantités de précipitations

stations d'obs. à proximité